Weather in Ostrovtsy

Russia / Pskov Oblast     58°24′24″N   27°42′06″E
temp.,
°C
wind,
m/s
gust,
m/s
humid.,
%
clouds,
%
prec.,
mm/h
press.,
hPa
HPBL,
m
21 april, wed
wed2100:00+4ese337994 0.0 101337
03:00+3se338779 0.0 101247
06:00+3se119380 0.0 101010
09:00+4e118898 0.0 100888
12:00+5w218364 0.0 1006217
15:00+5n127611 0.0 1004414
18:00+6nw0166100 0.0 1003270
21:00+5s337780 0.1 100228
22 april, thu
thu2200:00+4sw348240 0.1 100234
03:00+3ssw4581100 0.1 100357
06:00+3ssw468148 0.0 100381
09:00+4sw588055 0.0 1005202
12:00+6ssw466261 0.0 1006437
15:00+6ssw6977100 0.1 1006364
18:00+5sse5881100 0.6 1005171
21:00+4sse61085100 0.6 1004156
23 april, fri
fri2300:00+4s59825 0.1 1004138
03:00+3s6108423 0.1 1004217
06:00+2s6109032 0.0 1003281
09:00+3s7107599 0.1 1004482
12:00+3ssw698265 0.3 1005451
15:00+4s697280 0.4 1006473
18:00+5s697029 0.3 1007488
21:00+2sw71196100 0.4 1008515
24 april, sat
sat2400:00+1ssw699161 0.6 1008425
03:000ssw58915 0.6 1008306
06:000ssw46929 0.0 1008231
09:00+1s458271 0.0 1007386
12:00+3ssw347361 0.0 1008328
15:00+3sw2281100 0.1 1007322
18:00+3nw227841 0.2 1007225
21:00+2nnw228215 0.2 100724
25 april, sun
sun2500:00+1n348699 0.0 100754
03:00+1nnw46885 0.0 1006127
06:000wnw579397 0.0 1006257
09:00+1wnw5895100 0.1 1005371
12:00+2w5887100 0.1 1005365
15:00+2wnw5798100 0.8 1005376
18:00+1wnw5898100 0.5 1005356
21:00+1wnw6999100 1.1 1005359